This demonstration page uses our WeatherBlox Daily Observations layout. Learn more.

38.89511, -77.03637

Hourly Observations for September 10, 2018

Temp ( °F °C ) Dew Point ( °F °C ) Humidity (%) Winds ( mph kmh ) Pressure ( in mb ) Visibility ( mi km ) Precip ( " mm )
12:52 am 00:52 Cloudy 65 18.3 60 15.6 84 84 ENE 13 20 30.09 1019 10 16.0934 0 0
1:52 am 01:52 Cloudy with Light Rain 65 18.3 61 16.1 87 87 ENE 14 22 30.07 1018 10 16.0934 0 0.0254
2:00 am 02:00 Cloudy with Light Rain 65 18.3 61 16.1 87 87 NE 13 20 30.06 1018 10 16.0934 0 0.0254
2:38 am 02:38 Cloudy with Light Rain 66 18.9 61 16.1 84 84 ENE 13 20 30.06 1018 10 16.0934 0 0.0254
2:52 am 02:52 Cloudy with Light Rain 66 18.9 61 16.1 84 84 E 14 22 30.04 1017 10 16.0934 0 0.0254
3:52 am 03:52 Cloudy 65 18.3 61 16.1 87 87 NE 9 15 30.06 1018 10 16.0934 0.01 0.254
4:52 am 04:52 Cloudy with Light Drizzle 65 18.3 61 16.1 87 87 ENE 13 20 30.04 1017 5 8.0467 0 0.0254
5:52 am 05:52 Cloudy with Light Drizzle 65 18.3 61 16.1 87 87 E 9 15 30.05 1018 7 11.26538 0 0.0254
6:19 am 06:19 Cloudy with Light Drizzle 65 18.3 61 16.1 87 87 ENE 10 17 30.06 1018 6 9.65604 0 0.0254
6:52 am 06:52 Cloudy with Light Drizzle 65 18.3 61 16.1 87 87 ENE 12 19 30.06 1018 4 6.43736 0 0.0254
7:52 am 07:52 Cloudy with Light Drizzle 65 18.3 61 16.1 87 87 ENE 9 15 30.06 1018 5 8.0467 0 0.0254
8:52 am 08:52 Cloudy 66 18.9 62 16.7 87 87 NE 7 11 30.06 1018 7 11.26538 0 0.0254
9:52 am 09:52 Cloudy 68 20 63 17.2 84 84 ENE 10 17 30.06 1018 8 12.87472 0 0
10:52 am 10:52 Cloudy with Light Rain 69 20.6 65 18.3 87 87 E 3 6 30.06 1018 10 16.0934 0 0.0254
11:52 am 11:52 Cloudy 71 21.7 67 19.4 87 87 ENE 7 11 30.05 1018 10 16.0934 0 0.0254
12:02 pm 12:02 Cloudy 71 21.7 66 18.9 84 84 E 9 15 30.06 1018 10 16.0934 0 0
12:42 pm 12:42 Cloudy 72 22.2 67 19.4 84 84 E 8 13 30.06 1018 10 16.0934 0 0
12:52 pm 12:52 Cloudy 72 22.2 67 19.4 84 84 E 6 9 30.05 1018 10 16.0934 0 0
1:07 pm 13:07 Cloudy with Light Rain 72 22.2 67 19.4 84 84 ESE 9 15 30.06 1018 4 6.43736 0 0.0254
1:52 pm 13:52 Cloudy 72 22.2 68 20 87 87 ESE 6 9 30.04 1017 10 16.0934 0 0.0254
2:52 pm 14:52 Cloudy with Light Drizzle 73 22.8 69 20.6 87 87 E 3 6 30.03 1017 6 9.65604 0 0.0254
3:52 pm 15:52 Cloudy with Light Drizzle 73 22.8 70 21.1 90 90 NE 7 11 30.01 1016 5 8.0467 0 0.0254
3:56 pm 15:56 Cloudy with Light Drizzle 74 23.3 70 21.1 88 88 NE 8 13 30 1016 5 8.0467 0 0.0254
4:09 pm 16:09 Cloudy 74 23.3 71 21.7 91 91 NNE 6 9 30 1016 7 11.26538 0 0.0254
4:52 pm 16:52 Cloudy 75 23.9 71 21.7 88 88 NE 6 9 29.99 1016 9 14.48406 0 0.0254
5:52 pm 17:52 Cloudy 75 23.9 71 21.7 88 88 NE 6 9 29.99 1016 10 16.0934 0 0
6:21 pm 18:21 Cloudy 75 23.9 71 21.7 88 88 NE 9 15 30 1016 10 16.0934 0 0
6:52 pm 18:52 Cloudy 75 23.9 71 21.7 88 88 NE 7 11 29.99 1016 10 16.0934 0 0
6:55 pm 18:55 Cloudy with Nearby Thunderstorms 75 23.9 71 21.7 88 88 NE 7 11 30 1016 10 16.0934 0 0
7:10 pm 19:10 Cloudy 75 23.9 71 21.7 88 88 NE 7 11 30 1016 10 16.0934 0 0
7:19 pm 19:19 Cloudy with Nearby Thunderstorms 75 23.9 71 21.7 88 88 NE 7 11 30 1016 10 16.0934 0 0
7:34 pm 19:34 Cloudy with Nearby Thunderstorms 74 23.3 71 21.7 91 91 NNE 6 9 30 1016 10 16.0934 0 0
7:36 pm 19:36 Cloudy with Nearby Thunderstorms 74 23.3 71 21.7 91 91 NNE 6 9 30 1016 10 16.0934 0 0
7:52 pm 19:52 Cloudy with Nearby Thunderstorms 75 23.9 71 21.7 88 88 NNE 6 9 30 1016 10 16.0934 0 0
7:54 pm 19:54 Cloudy with Nearby Thunderstorms 75 23.9 71 21.7 88 88 NE 6 9 30 1016 10 16.0934 0 0
8:19 pm 20:19 Cloudy with Nearby Thunderstorms 75 23.9 71 21.7 88 88 NE 6 9 30 1016 10 16.0934 0 0
8:23 pm 20:23 Cloudy with Nearby Thunderstorms 75 23.9 71 21.7 88 88 NE 6 9 30.03 1017 10 16.0934 0 0
8:28 pm 20:28 Cloudy with Nearby Thunderstorms 75 23.9 71 21.7 88 88 NNE 6 9 30.03 1017 10 16.0934 0 0
8:31 pm 20:31 Cloudy 75 23.9 71 21.7 88 88 NNE 5 7 30.03 1017 10 16.0934 0 0
8:36 pm 20:36 Cloudy with Nearby Thunderstorms 75 23.9 71 21.7 88 88 NNE 3 6 30.03 1017 10 16.0934 0 0
8:52 pm 20:52 Cloudy 75 23.9 72 22.2 90 90 N 5 7 30.04 1017 10 16.0934 0 0
9:07 pm 21:07 Cloudy with Nearby Thunderstorms 76 24.4 72 22.2 88 88 NNE 6 9 30.03 1017 10 16.0934 0 0.0254
9:24 pm 21:24 Cloudy with Light Rain 75 23.9 71 21.7 88 88 ENE 3 6 30.03 1017 10 16.0934 0.01 0.254
9:28 pm 21:28 Cloudy with Nearby Thunderstorms 75 23.9 71 21.7 88 88 ENE 5 7 30.06 1018 10 16.0934 0.01 0.254
9:48 pm 21:48 Cloudy 73 23 72 22 94 94 ESE 7 11 30.03 1017 10 16.0934 0.01 0.254
9:52 pm 21:52 Cloudy with Light Rain 74 23.3 71 21.7 91 91 E 6 9 30.05 1018 10 16.0934 0.01 0.254
10:12 pm 22:12 Cloudy with Light Rain 74 23.3 71 21.7 91 91 E 6 9 30.06 1018 10 16.0934 0 0.0254
10:52 pm 22:52 Cloudy 74 23.3 71 21.7 91 91 ENE 5 7 30.05 1018 10 16.0934 0 0.0254
11:40 pm 23:40 Cloudy with Nearby Thunderstorms 74 23.3 71 21.7 91 91 E 6 9 30.06 1018 10 16.0934 0 0
11:52 pm 23:52 Cloudy 74 23.3 71 21.7 91 91 E 5 7 30.05 1018 10 16.0934 0 0

Powered by AerisWeather